When you browse on this site, cookies collect data to enhance your experience and personalize the content and advertising you see.
Visit our Privacy Policy to learn more. By continuing to use the site, you agree to this use of cookies and data.
  • In Czech Republic
  • List of Countries
  • For 7 days
  • Water Temperature
  • Weather Map
  • Weather Widgets
  • user-avatar
    Login

    Hourly Weather Zuevo

    Today, 27 May, Wednesday

    Time Temperature Precipitation Wind Pressure Humidity
    00:00 +13°C° 0 mm 6 mps 754 mmHg 76%
    01:00 +12°C° 0 mm 7 mps 753 mmHg 75%
    02:00 +12°C° 0 mm 5 mps 752 mmHg 78%
    03:00 +12°C° 0 mm 4 mps 752 mmHg 80%
    04:00 +13°C° 0 mm 2 mps 752 mmHg 83%
    05:00 +12°C° 0.7 mm 4 mps 751 mmHg 82%
    06:00 +13°C° 0.7 mm 6 mps 751 mmHg 82%
    07:00 +14°C° 0.7 mm 7 mps 750 mmHg 81%
    08:00 +15°C° 0.3 mm 8 mps 750 mmHg 78%
    09:00 +17°C° 0.3 mm 8 mps 750 mmHg 74%
    10:00 +20°C° 0 mm 8 mps 749 mmHg 69%
    11:00 +21°C° 0 mm 8 mps 749 mmHg 67%
    12:00 +23°C° 0 mm 7 mps 749 mmHg 64%
    13:00 +26°C° 0 mm 7 mps 748 mmHg 62%
    14:00 +26°C° 0 mm 7 mps 748 mmHg 62%
    15:00 +27°C° 0 mm 6 mps 748 mmHg 63%
    16:00 +27°C° 0 mm 6 mps 748 mmHg 64%
    17:00 +26°C° 0.1 mm 5 mps 748 mmHg 69%
    18:00 +26°C° 0.1 mm 5 mps 748 mmHg 75%
    19:00 +25°C° 0.1 mm 5 mps 748 mmHg 81%
    20:00 +22°C° 0 mm 5 mps 748 mmHg 84%
    21:00 +20°C° 0 mm 5 mps 748 mmHg 87%
    22:00 +19°C° 0 mm 5 mps 748 mmHg 91%
    23:00 +16°C° 0 mm 5 mps 749 mmHg 90%

    Tomorrow, 28 May, Thursday

    Time Temperature Precipitation Wind Pressure Humidity
    00:00 +15°C° 0 mm 4 mps 749 mmHg 90%
    01:00 +14°C° 0 mm 4 mps 749 mmHg 90%
    02:00 +14°C° 0 mm 4 mps 750 mmHg 89%
    03:00 +13°C° 0 mm 4 mps 750 mmHg 88%
    04:00 +12°C° 0 mm 4 mps 751 mmHg 86%
    05:00 +12°C° 0 mm 5 mps 751 mmHg 85%
    06:00 +13°C° 0 mm 5 mps 751 mmHg 84%
    07:00 +13°C° 0 mm 5 mps 751 mmHg 83%
    08:00 +13°C° 0 mm 5 mps 752 mmHg 80%
    09:00 +14°C° 0 mm 5 mps 752 mmHg 76%
    10:00 +15°C° 0 mm 5 mps 752 mmHg 73%
    11:00 +16°C° 0 mm 5 mps 752 mmHg 68%
    12:00 +18°C° 0 mm 4 mps 752 mmHg 63%
    13:00 +19°C° 0 mm 4 mps 752 mmHg 58%
    14:00 +19°C° 0 mm 4 mps 752 mmHg 57%
    15:00 +19°C° 0 mm 4 mps 753 mmHg 57%
    16:00 +20°C° 0 mm 4 mps 753 mmHg 56%
    17:00 +19°C° 0 mm 4 mps 753 mmHg 60%
    18:00 +19°C° 0 mm 3 mps 753 mmHg 63%
    19:00 +19°C° 0 mm 3 mps 753 mmHg 67%
    20:00 +17°C° 0 mm 2 mps 753 mmHg 72%
    21:00 +15°C° 0 mm 2 mps 753 mmHg 76%
    22:00 +14°C° 0 mm 2 mps 753 mmHg 80%
    23:00 +13°C° 0 mm 2 mps 753 mmHg 82%

    Day after tomorrow, 29 May, Friday

    Time Temperature Precipitation Wind Pressure Humidity
    00:00 +13°C° 0 mm 2 mps 754 mmHg 84%
    01:00 +12°C° 0 mm 2 mps 754 mmHg 86%
    02:00 +12°C° 0 mm 2 mps 754 mmHg 87%
    03:00 +12°C° 0 mm 1 mps 754 mmHg 88%
    04:00 +11°C° 0 mm 1 mps 754 mmHg 88%
    05:00 +13°C° 0 mm 1 mps 754 mmHg 84%
    06:00 +14°C° 0 mm 1 mps 754 mmHg 79%
    07:00 +16°C° 0 mm 1 mps 754 mmHg 75%
    08:00 +18°C° 0 mm 1 mps 754 mmHg 69%
    09:00 +19°C° 0 mm 1 mps 754 mmHg 63%
    10:00 +21°C° 0 mm 1 mps 754 mmHg 58%
    11:00 +22°C° 0 mm 1 mps 754 mmHg 54%
    12:00 +22°C° 0 mm 1 mps 754 mmHg 51%
    13:00 +23°C° 0 mm 2 mps 754 mmHg 48%
    14:00 +24°C° 0 mm 2 mps 753 mmHg 48%
    15:00 +24°C° 0 mm 2 mps 753 mmHg 47%
    16:00 +24°C° 0 mm 2 mps 753 mmHg 47%
    17:00 +24°C° 0 mm 2 mps 753 mmHg 51%
    18:00 +23°C° 0 mm 1 mps 752 mmHg 55%
    19:00 +23°C° 0 mm 1 mps 752 mmHg 60%
    20:00 +21°C° 0 mm 1 mps 752 mmHg 64%
    21:00 +19°C° 0 mm 1 mps 752 mmHg 68%
    22:00 +16°C° 0 mm 1 mps 752 mmHg 72%
    23:00 +16°C° 0 mm 1 mps 752 mmHg 74%

    30 May, Saturday

    Time Temperature Precipitation Wind Pressure Humidity
    00:00 +15°C° 0 mm 1 mps 751 mmHg 77%
    01:00 +14°C° 0 mm 0 mps 751 mmHg 79%
    02:00 +13°C° 0 mm 0 mps 751 mmHg 81%
    03:00 +14°C° 0 mm 1 mps 751 mmHg 82%
    04:00 +14°C° 0 mm 1 mps 751 mmHg 83%
    05:00 +14°C° 0 mm 0 mps 751 mmHg 79%
    06:00 +15°C° 0 mm 0 mps 751 mmHg 75%
    07:00 +17°C° 0 mm 0 mps 751 mmHg 71%
    08:00 +18°C° 0 mm 0 mps 751 mmHg 66%
    09:00 +20°C° 0 mm 0 mps 751 mmHg 61%
    10:00 +22°C° 0 mm 0 mps 750 mmHg 56%
    11:00 +22°C° 0 mm 0 mps 750 mmHg 53%
    12:00 +25°C° 0 mm 1 mps 750 mmHg 50%
    13:00 +26°C° 0 mm 1 mps 750 mmHg 47%
    14:00 +26°C° 0 mm 1 mps 749 mmHg 47%
    15:00 +26°C° 0 mm 1 mps 749 mmHg 46%
    16:00 +26°C° 0 mm 1 mps 748 mmHg 46%
    17:00 +25°C° 0 mm 1 mps 748 mmHg 52%
    18:00 +25°C° 0 mm 1 mps 748 mmHg 57%
    19:00 +24°C° 0 mm 1 mps 747 mmHg 63%
    20:00 +21°C° 0 mm 2 mps 747 mmHg 70%
    21:00 +19°C° 0 mm 3 mps 747 mmHg 77%
    22:00 +17°C° 0 mm 4 mps 747 mmHg 85%
    23:00 +15°C° 0 mm 4 mps 746 mmHg 85%

    31 May, Sunday

    Time Temperature Precipitation Wind Pressure Humidity
    00:00 +14°C° 0 mm 3 mps 746 mmHg 85%
    01:00 +13°C° 0 mm 3 mps 746 mmHg 85%
    02:00 +13°C° 0 mm 3 mps 745 mmHg 84%
    03:00 +12°C° 0 mm 3 mps 745 mmHg 82%
    04:00 +12°C° 0 mm 4 mps 745 mmHg 81%
    05:00 +13°C° 0 mm 4 mps 745 mmHg 80%
    06:00 +14°C° 0 mm 4 mps 744 mmHg 79%
    07:00 +14°C° 0 mm 4 mps 744 mmHg 78%
    08:00 +15°C° 0 mm 5 mps 744 mmHg 75%
    09:00 +16°C° 0 mm 5 mps 743 mmHg 71%
    10:00 +17°C° 0 mm 6 mps 743 mmHg 68%
    11:00 +19°C° 0 mm 6 mps 742 mmHg 66%
    12:00 +20°C° 0 mm 6 mps 742 mmHg 64%
    13:00 +20°C° 0 mm 7 mps 742 mmHg 62%
    14:00 +20°C° 0 mm 7 mps 741 mmHg 63%
    15:00 +18°C° 0 mm 7 mps 741 mmHg 63%
    16:00 +18°C° 0 mm 7 mps 740 mmHg 63%
    17:00 +16°C° 0.5 mm 6 mps 740 mmHg 68%
    18:00 +15°C° 0.5 mm 6 mps 740 mmHg 74%
    19:00 +14°C° 0.5 mm 5 mps 740 mmHg 79%
    20:00 +13°C° 0.6 mm 5 mps 739 mmHg 78%
    21:00 +11°C° 0.6 mm 6 mps 739 mmHg 78%
    22:00 +10°C° 0.6 mm 7 mps 739 mmHg 77%
    23:00 +10°C° 0.7 mm 7 mps 739 mmHg 76%

    1 June, Monday

    Time Temperature Precipitation Wind Pressure Humidity
    00:00 +9°C° 0.7 mm 6 mps 739 mmHg 74%
    01:00 +9°C° 0.7 mm 6 mps 739 mmHg 73%
    02:00 +8°C° 0.5 mm 7 mps 738 mmHg 76%
    03:00 +6°C° 0.5 mm 7 mps 738 mmHg 80%
    04:00 +5°C° 0.5 mm 7 mps 738 mmHg 83%
    05:00 +5°C° 0.4 mm 7 mps 738 mmHg 83%
    06:00 +5°C° 0.4 mm 7 mps 738 mmHg 84%
    07:00 +5°C° 0.4 mm 7 mps 738 mmHg 84%
    08:00 +7°C° 0 mm 6 mps 738 mmHg 82%
    09:00 +8°C° 0 mm 6 mps 739 mmHg 79%
    10:00 +9°C° 0 mm 6 mps 739 mmHg 77%
    11:00 +10°C° 0 mm 6 mps 739 mmHg 74%
    12:00 +11°C° 0 mm 6 mps 740 mmHg 71%
    13:00 +11°C° 0 mm 6 mps 740 mmHg 68%
    14:00 +13°C° 0.1 mm 6 mps 740 mmHg 67%
    15:00 +13°C° 0.1 mm 6 mps 741 mmHg 66%
    16:00 +14°C° 0.1 mm 6 mps 741 mmHg 65%
    17:00 +13°C° 0.1 mm 5 mps 741 mmHg 67%
    18:00 +13°C° 0.1 mm 4 mps 741 mmHg 69%
    19:00 +12°C° 0.1 mm 3 mps 742 mmHg 72%
    20:00 +11°C° 0 mm 3 mps 742 mmHg 75%
    21:00 +10°C° 0 mm 2 mps 742 mmHg 79%
    22:00 +9°C° 0 mm 2 mps 743 mmHg 83%
    23:00 +8°C° 0 mm 2 mps 743 mmHg 85%
    Show more